User: anonymous   Login
Location: Unspecified
(0.0000°N, 0.0000°E)
Time: 18:43:26
(UTC+00:00)
Language:

UWE-3 - Orbit

View from above orbital plane
View from above orbital plane
View from above satellite
View from above satellite

Ground track
Ground track

The orbit data is extracted from the following two-line orbital elements,

1 39446U 13066AG  18350.99080909  .00000196  00000-0  32882-4 0  9996
2 39446  97.5845   2.0762 0068835 300.1017  59.3383 14.78301466272120
Epoch (UTC): 16 December 2018 23:46:45
Eccentricity: 0.0068835
inclination: 97.5845°
perigee height: 586 km
apogee height: 683 km
right ascension of ascending node: 2.0762°
argument of perigee: 300.1017°
revolutions per day: 14.78301466
mean anomaly at epoch: 59.3383°
orbit number at epoch: 27212

The dashed part of the orbit path shows where the satellite is in the earth's shadow,  

DLR